{"data":{"norad_id":67279,"intl_designator":"2025-313AH","name":"GALAPAGOS-UTE-SWSU","alt_names":[],"object_type":"PAYLOAD","status":"ACTIVE","operator":null,"country":"TBD","launch_date":"2025-12-28","launch_site_code":"VOSTO","launch_vehicle":null,"mission":null,"orbit_class":"UNKNOWN","rcs_meters":null,"size_class":null,"mass_kg":null,"dimensions":null,"purposes":[],"wikipedia_slug":null,"has_3d_model":false,"image_url":null,"decayed_at":null,"tle_current":{"epoch":"2026-09-19T23:47:33.731232Z","epoch_age_seconds":147020,"freshness":"FRESH","line1":"1 67279U 25313AH  26262.99136263  .00004221  00000+0  17728-3 0  9998","line2":"2 67279  97.3843 336.1392 0014461  36.5171 323.7050 15.23900624 40380","mean_motion":15.23900624,"eccentricity":0.0014461,"inclination_deg":97.3843,"raan_deg":336.1392,"arg_perigee_deg":36.5171,"mean_anomaly_deg":323.705,"bstar":0.00017728,"rev_number":4038,"period_min":94.49435070249,"perigee_km":484.15070738547,"apogee_km":504.02655836086,"semimajor_km":6872.2256328732,"source":"CELESTRAK","updated_at":"2026-09-21T09:00:16.546456Z"}}}